sat.trackr.live / text

‹ back to catalog

ONEWEB-0186

NORAD 48229 · 2021-031V

PAYLOAD ACTIVE UNKNOWN

§ Identity

Operator
Country
UK
Launch date
2021-04-25
Launch site
VOSTO
Launch vehicle
Mass (kg)
RCS (m²)

Purposes: comms

External: N2YO · Heavens-Above · Gunter

§ Orbital elements

Epoch: 2026-05-25T03:06:33.582240Z

Period
109.55 min
Inclination
87.8948°
Eccentricity
0.0001811
Mean motion
13.14502214 rev/d
Perigee alt
1,204.4 km
Apogee alt
1,207.2 km
Semi-major
7,583.9 km
B*
-4.2695e-4
RAAN
294.2930°
Arg perigee
101.3434°
Mean anomaly
258.7899°
Rev number
24,535

§ Raw data

ONEWEB-01861 48229U 21031V   26145.12955535 -.00000145  00000+0 -42695-3 0  99952 48229  87.8948 294.2930 0001811 101.3434 258.7899 13.14502214245357

JSON: /api/v1/satellites/48229 · /tle

For live sub-satellite position, see the globe view (requires WebGL).

§ Visibility from observer

Set your observer location to see the next 7 days of passes ≥ 10°. The values pass through the URL so the page stays shareable.

No JS? Fill the form by hand. The geolocation button needs JavaScript.